Погода в Ашдоде

Израиль     31°48′26″N   34°39′31″E
темп.,
°C
ветер,
м/с
пор.,
м/с
влажн.,
%
обл.,
%
осадки,
мм/ч
давл.,
гПа
погр.,
м
24 января, пн
пн2423:00+10юв228999 1.4 1018126
02:00+10ююз597735 2.9 1017254
05:00+10юз81379100 0.6 1017487
08:00+10з3586100 4.7 1020268
11:00+11зсз2471100 1.7 1022247
14:00+12зсз456698 2.4 10211150
17:00+10св2268100 0.5 1022113
20:00+8вюв45775 0.6 102373
25 января, вт
вт2523:00+8юв33755 0.0 102336
02:00+7юв22732 0.0 102223
05:00+7юв22730 0.0 102128
08:00+9ююв34720 0.0 1021120
11:00+12юз66582 0.0 10211284
14:00+13зюз665491 0.0 10191612
17:00+10зюз45601 0.0 1019131
20:00+9ююв44571 0.0 102072
26 января, ср
ср2623:00+8ююв57575 0.0 101996
02:00+9ююз5106193 0.1 1017279
05:00+8ююз6116719 0.1 1016273
08:00+9ю7116826 0.2 1016371
11:00+11юз111464100 0.2 10161623
14:00+9юз12168085 2.9 10141381
17:00+10з91456100 4.8 1014497
20:00+7юз9138386 6.9 1017655
27 января, чт
чт2723:00+8з13177872 3.8 1017937
02:00+10зсз121661100 6.3 1017639
05:00+10зсз10146399 1.9 1017513
08:00+11зсз9126391 3.5 1020526
11:00+14з9115280 0.6 10202084
14:00+14з9125564 1.9 10202084
17:00+11зюз8117180 1.7 1020403
20:00+12з7116668 2.9 1021341
28 января, пт
пт2823:00+11з7116988 1.1 1022352
02:00+11з61076100 2.6 1022309
05:00+11з697682 2.1 1022316
08:00+11з597298 3.6 1023325
11:00+13зсз796266 1.3 10241448
14:00+13зсз796442 1.8 10231309
17:00+11з586692 0.3 1023241
20:00+11зсз4767100 0.5 1024202